Weather in Nantes

France     47°13′09″N   1°33′22″W
temp.,
°C
wind,
m/s
gust,
m/s
humid.,
%
clouds,
%
prec.,
mm/h
press.,
hPa
HPBL,
m
15 may, sat
sat1523:00+9s4992100 0.5 1011381
02:00+9sse61496100 3.5 1008866
05:00+11wsw51296100 0.8 1006532
08:00+11w41093100 0.8 1006657
11:00+13wsw61083100 0.2 1007953
14:00+16wsw9115796 0.5 10071702
17:00+16wsw9115815 0.0 10071442
20:00+13wsw7107696 0.1 1008932
16 may, sun
sun1623:00+11sw51296100 0.3 1008449
02:00+10ssw3998100 0.4 1007260
05:00+10sw4109726 0.4 1005355
08:00+11wsw61193100 0.8 1005670
11:00+14wsw91267100 0.2 10061364
14:00+15wsw11146426 0.7 10071594
17:00+15wsw11167029 1.0 10071545
20:00+12wsw9158519 2.0 10071123
17 may, mon
mon1723:00+10wsw8149147 0.2 1009767
02:00+10wsw7149233 0.4 1009728
05:00+10wsw7149250 0.2 1009738
08:00+11w8138899 0.5 1010927
11:00+14w9127535 0.7 10121264
14:00+16w10135929 1.3 10131718
17:00+16w1013594 0.1 10141668
20:00+13w813750 0.1 10151154
18 may, tue
tue1823:00+10w613872 0.0 1017644
02:00+9w512910 0.0 1019468
05:00+8w310955 0.0 1020242
08:00+10wsw410855 0.0 1021706
11:00+15w8106079 0.1 10221595
14:00+15wsw796496 0.6 10221500
17:00+15wsw8106342 0.5 10221505
20:00+14wsw711745 0.6 10221078
19 may, wed
wed1923:00+10wsw4109693 0.1 1023319
02:00+9wsw389576 0.1 1023174
05:00+8w2396100 0.1 102344
08:00+9wnw2390100 0.1 1024118
11:00+14wnw23613 0.0 1025829
14:00+17w34425 0.0 10241742
17:00+17w544230 0.0 10231546
20:00+14wsw455898 0.0 1023520